[[{"header":{"parameterUnit":"m.s-1","parameterCategory":1,"la1":30.2992,"la2":30.254,"lo1":-89.0895,"lo2":-89.0443,"dy":0.0025,"dx":0.0025,"nx":19,"ny":19,"refTime":"2026-03-09T21:00:00:Z","depth":0,"parameterNumber":2,"parameterNumberName":"U-component_of_WINDS"},"data":[0,0,0,-1.344,-1.3439,-1.3424,-1.3424,-1.341,-1.341,0,0,0,0,0,0,0,0,0,0,0,-1.3448,-1.3448,-1.344,-1.3439,-1.3424,-1.3424,-1.341,-1.341,0,0,0,0,0,0,0,0,0,0,0,-1.3448,-1.3448,-1.3448,-1.3439,-1.3424,-1.3424,-1.341,-1.3419,0,0,0,0,0,0,0,0,0,0,-1.3433,-1.3445,-1.3448,-1.3448,-1.3439,-1.3424,-1.3424,-1.342,-1.3419,-1.3419,0,-1.3421,0,-1.3415,-1.3409,-1.3409,0,0,0,-1.3436,-1.3446,-1.3438,-1.3448,-1.3439,-1.3424,-1.343,-1.3419,-1.3418,-1.3418,-1.3421,-1.342,-1.3415,-1.3409,-1.3409,-1.3423,-1.3423,0,0,-1.3437,-1.3447,-1.3439,-1.3438,-1.3441,-1.3431,-1.343,-1.3418,-1.3422,-1.3421,-1.342,-1.3415,-1.3409,-1.3409,-1.3422,-1.3423,0,0,0,-1.3442,-1.3448,-1.3441,-1.3438,-1.3435,-1.343,-1.3429,-1.3423,-1.3419,-1.342,-1.3415,-1.3409,-1.3409,-1.3422,-1.3423,-1.3442,0,0,0,-1.3442,-1.345,-1.3441,-1.3447,-1.3436,-1.3429,-1.3434,-1.342,-1.3419,-1.3415,-1.3409,-1.3409,-1.3422,-1.3422,-1.3441,-1.3449,0,0,0,-1.3448,-1.3451,-1.345,-1.3448,-1.3442,-1.3429,-1.3425,-1.342,-1.3416,-1.3409,-1.3409,-1.3422,-1.3422,-1.344,-1.3447,-1.3454,0,0,0,-1.3456,-1.3468,-1.3451,-1.3462,-1.3442,-1.3441,-1.3425,-1.3424,-1.3421,-1.3409,-1.3422,-1.3423,-1.3439,-1.3446,-1.3453,-1.3461,-1.3466,0,0,-1.3476,-1.3471,-1.3476,-1.346,-1.3466,-1.3443,-1.3451,-1.3438,-1.3428,-1.3425,-1.3425,-1.3441,-1.3447,-1.3454,-1.349,-1.3494,0,0,0,-1.3486,-1.349,-1.3489,-1.3486,-1.3478,-1.347,-1.3456,-1.3451,-1.3448,-1.3429,-1.3446,-1.3449,-1.3453,-1.3456,-1.3459,-1.3461,-1.3425,-1.3425,-1.3425,-1.3527,-1.3514,-1.3522,-1.3507,-1.3505,-1.349,-1.3487,-1.3478,-1.3466,-1.347,-1.3468,-1.3492,-1.3496,-1.3498,-1.35,-1.3473,-1.3473,-1.3473,-1.3473,-1.3554,-1.3557,-1.354,-1.3542,-1.3528,-1.3529,-1.3515,-1.3506,-1.3505,-1.3492,-1.3495,-1.3481,-1.3503,-1.3504,-1.3474,-1.3474,-1.3474,-1.3473,-1.3473,-1.3578,-1.3577,-1.3572,-1.3567,-1.3564,-1.3549,-1.3548,-1.3536,-1.3524,-1.3527,-1.3523,-1.3523,-1.352,-1.3526,-1.3526,-1.3526,-1.3527,-1.3527,-1.3527,-1.3605,-1.3599,-1.36,-1.3591,-1.3588,-1.3582,-1.3567,-1.3563,-1.3555,-1.3546,-1.3546,-1.3532,-1.3508,-1.3501,-1.3528,-1.3528,-1.3527,-1.3527,-1.3527,-1.3635,-1.3626,-1.3628,-1.3625,-1.3613,-1.3611,-1.3596,-1.3589,-1.3583,-1.3583,-1.3569,-1.3554,-1.3547,-1.3544,-1.3538,-1.3573,-1.3573,-1.3573,-1.3573,-1.3654,-1.365,-1.3649,-1.3644,-1.3638,-1.3624,-1.3625,-1.3614,-1.36,-1.3596,-1.359,-1.3581,-1.3579,-1.3573,-1.357,-1.3565,-1.3605,-1.3605,-1.3605,-1.3671,-1.3666,-1.3669,-1.3657,-1.3647,-1.3639,-1.3639,-1.3634,-1.3617,-1.3606,-1.3592,-1.3591,-1.3578,-1.3574,-1.3562,-1.3558,-1.3547,0,0]},{"header":{"parameterUnit":"m.s-1","parameterCategory":1,"la1":30.2992,"la2":30.254,"lo1":-89.0895,"lo2":-89.0443,"dy":0.0025,"dx":0.0025,"nx":19,"ny":19,"refTime":"2026-03-09T21:00:00:Z","depth":0,"parameterNumber":3,"parameterNumberName":"V-component_of_WINDS"},"data":[0,0,0,4.5044,4.5048,4.5229,4.523,4.545,4.5452,0,0,0,0,0,0,0,0,0,0,0,4.4985,4.4986,4.5044,4.5048,4.5229,4.523,4.545,4.5452,0,0,0,0,0,0,0,0,0,0,0,4.4984,4.4986,4.4987,4.5049,4.5229,4.523,4.5449,4.5317,0,0,0,0,0,0,0,0,0,0,4.5143,4.5082,4.4985,4.4987,4.505,4.5228,4.523,4.531,4.5325,4.5364,0,4.5397,0,4.5428,4.5466,4.5467,0,0,0,4.5052,4.507,4.5124,4.4988,4.5052,4.5228,4.5149,4.5319,4.5335,4.5383,4.5401,4.5409,4.5432,4.5467,4.5469,4.5684,4.5685,0,0,4.5042,4.5013,4.5113,4.5135,4.5107,4.5143,4.5154,4.5329,4.5345,4.5402,4.5415,4.5436,4.5469,4.547,4.5684,4.5685,0,0,0,4.5011,4.5006,4.5057,4.5125,4.5159,4.5148,4.5161,4.5338,4.5357,4.5417,4.5438,4.547,4.5473,4.5683,4.5684,4.5699,0,0,0,4.5005,4.4988,4.5052,4.5036,4.5155,4.5251,4.5166,4.5345,4.5365,4.5437,4.547,4.5475,4.5682,4.5683,4.5697,4.5711,0,0,0,4.4975,4.4985,4.5009,4.5034,4.5111,4.5248,4.5278,4.535,4.5378,4.5467,4.5475,4.5681,4.5683,4.5695,4.5707,4.5762,0,0,0,4.4934,4.5016,4.5008,4.5109,4.5109,4.5256,4.5277,4.5387,4.5465,4.5471,4.5682,4.5684,4.5694,4.5705,4.576,4.5804,4.5819,0,0,4.5022,4.5026,4.5088,4.5086,4.5227,4.5231,4.5374,4.5471,4.5505,4.5622,4.5628,4.5697,4.5707,4.5762,4.5911,4.5923,0,0,0,4.5106,4.515,4.5194,4.5268,4.5346,4.5415,4.5494,4.5531,4.5633,4.556,4.5731,4.5738,4.5771,4.5794,4.5804,4.5836,4.5692,4.5692,4.5692,4.5189,4.5231,4.5337,4.5401,4.5473,4.5555,4.5618,4.5681,4.5699,4.5739,4.5775,4.5861,4.5886,4.5894,4.5926,4.58,4.58,4.58,4.58,4.5324,4.5395,4.5421,4.5534,4.5577,4.5672,4.5755,4.5766,4.5861,4.5836,4.5867,4.5839,4.5906,4.5937,4.5801,4.5801,4.5801,4.5801,4.5801,4.5385,4.5427,4.5472,4.5586,4.567,4.5731,4.5823,4.5858,4.5891,4.5922,4.5965,4.5965,4.5972,4.594,4.594,4.594,4.5941,4.5941,4.5941,4.5431,4.5482,4.5556,4.5648,4.5703,4.5779,4.5865,4.5919,4.5988,4.6007,4.6007,4.6023,4.5904,4.5875,4.5946,4.5945,4.5944,4.5944,4.5944,4.5556,4.5535,4.5648,4.5704,4.5818,4.59,4.5945,4.6053,4.6103,4.6148,4.6158,4.6063,4.6069,4.6061,4.6038,4.6147,4.6147,4.6147,4.6147,4.5609,4.5617,4.5744,4.583,4.5918,4.5971,4.61,4.6169,4.6236,4.627,4.6259,4.623,4.622,4.6232,4.6221,4.6199,4.6347,4.6347,4.6347,4.569,4.5709,4.5812,4.5879,4.5972,4.6051,4.6175,4.6273,4.6344,4.6356,4.6298,4.629,4.6243,4.6225,4.6236,4.6218,4.6179,0,0]}]]